Location: Carri�res
(48.9069°N, 2.1792°E)
Time: 13:50:19
(UTC+00:00)

GENESIS II - Pass Details

Date: 17 January 2021
Orbit: 496 x 530 km, 64.5° (Epoch: 25 February)

Event Time Altitude Azimuth Distance (km) Brightness Sun altitude
Rises 18:18:52 0° 219° (SW) 2,660 8.6 -18.1°
Reaches altitude 10° 18:21:03 10° 219° (SW) 1,775 7.6 -18.5°
Maximum altitude 18:25:02 87° 304° (NW) 537 4.2 -19.1°
Enters shadow 18:26:15 44° 37° (NE) 741 4.6 -19.3°
